Regional Weather Roundup
Issued by NWS

Home | Current Version | Previous Version | Graphics & Text | Print | Product List | Glossary On
Versions: 1 2 3 4 5 6 7 8 9 10 11 12 13 14 15 16 17 18 19 20 21 22 23 24 25 26 27 28 29 30 31 32 33 34 35 36 37 38 39 40 41 42 43 44 45 46 47 48 49 50
395
ASUS43 KMKX 292200
RWRWI

WISCONSIN REGIONAL WEATHER ROUNDUP
NATIONAL WEATHER SERVICE MILWAUKEE/SULLIVAN WI
500 PM CDT FRI APR 29 2016

NOTE: "FAIR" INDICATES FEW OR NO CLOUDS BELOW 12,000 FEET WITH NO
SIGNIFICANT WEATHER AND/OR OBSTRUCTIONS TO VISIBILITY.

WIZ001-002-006>008-014>016-023>028-292300-
NORTHWEST WISCONSIN

CITY           SKY/WX    TMP DP  RH WIND       PRES   REMARKS
SUPERIOR ARPT  SUNNY     47  32  56 NE8       30.19R
ASHLAND        SUNNY     52  33  48 NE12      30.19R
HAYWARD        SUNNY     55  30  38 N13G21    30.13F
SIREN          MOSUNNY   60  29  30 E7        30.11S
CUMBERLAND     SUNNY     57  30  35 NE3       30.10S
RICE LAKE      PTSUNNY   60  30  31 N6        30.11S
CHETEK         PTSUNNY   60  35  37 SE10      30.10S
LADYSMITH      CLOUDY    60  31  32 CALM      30.11S
EAU CLAIRE     NOT AVBL
MENOMONIE      CLOUDY    61  42  50 SE7       30.12S
NEW RICHMOND   SUNNY     59  32  35 NE5       30.11F
OSCEOLA        SUNNY     60  32  35 E7        30.13F
$$

WIZ003>005-009-010-017-018-292300-
NORTH CENTRAL WISCONSIN

CITY           SKY/WX    TMP DP  RH WIND       PRES   REMARKS
MANITOWISH WTR PTSUNNY   55  32  41 CALM      30.10R
ARBOR VITAE    CLOUDY    57  33  41 N3        30.10S
WOODRUFF       CLOUDY    57  33  41 N3        30.10S
RHINELANDER    MOSUNNY   56  29  35 CALM      30.12R
EAGLE RIVER    PTSUNNY   55  28  35 E5        30.10S
LAND O LAKES   CLOUDY    55  30  37 SE3       30.11F
PHILLIPS       CLOUDY    57  33  40 CALM      30.09S
TOMAHAWK       CLOUDY    55  33  44 N5        30.11S
MEDFORD        CLOUDY    52  38  59 S3        30.11R
MERRILL        CLOUDY    56  35  46 S5        30.11R
$$

WIZ029-030-035-036-043>047-292300-
CENTRAL WISCONSIN

CITY           SKY/WX    TMP DP  RH WIND       PRES   REMARKS
WAUSAU         CLOUDY    57  33  40 SW5       30.09R
MOSINEE        CLOUDY    54  34  47 VRB5      30.12S
MARSHFIELD     MOSUNNY   57  36  45 N6        30.10F
STEVENS POINT  CLOUDY    53  32  45 E9        30.12S
WAUPACA        SUNNY     58  32  36 NE3       30.13R
WAUTOMA        MOSUNNY   55  33  43 E8        30.11
WISC RAPIDS    MOSUNNY   57  33  40 SE6       30.12S
CAMP DOUGLAS   NOT AVBL
$$

WIZ011>013-019>022-031-037>040-048>050-292300-
NORTHEAST WISCONSIN

CITY           SKY/WX    TMP DP  RH WIND       PRES   REMARKS
ANTIGO         CLOUDY    54  31  41 SE3       30.11R
SHAWANO        CLOUDY    56  33  42 NE5       30.13S
OCONTO         MOSUNNY   52  28  39 SE5       30.13R
STURGEON BAY   SUNNY     54  27  35 NE8       30.15S
GREEN BAY      SUNNY     55  35  47 E7        30.13S
MANITOWOC      NOT AVBL
APPLETON       MOSUNNY   54  30  40 NE13      30.10S
CLINTONVILLE   CLOUDY    54  32  43 E7        30.12S
OSHKOSH        SUNNY     54  34  46 E7        30.12R
$$

WIZ032>034-041-042-053>061-292300-
SOUTHWEST WISCONSIN

CITY           SKY/WX    TMP DP  RH WIND       PRES   REMARKS
LA CROSSE      CLOUDY    53  38  56 E7        30.11F
SPARTA         CLOUDY    52  39  61 E6        30.12F
VIROQUA        CLOUDY    49  37  64 E9        30.12R
BOSCOBEL       CLOUDY    52  38  58 NE3       30.12F
PRAIRIE DU CHI CLOUDY    51  36  55 NE7       30.11F
PLATTEVILLE    CLOUDY    48  40  74 E7        30.12S
$$

WIZ056-057-062-063-064-067-068-292300-
SOUTH CENTRAL WISCONSIN

CITY           SKY/WX    TMP DP  RH WIND       PRES   REMARKS
REEDSBURG      CLOUDY    53  37  54 E5        30.10S
BARABOO/DELLS  CLOUDY    53  36  51 E7        30.10S
LONE ROCK      NOT AVBL
MINERAL POINT  CLOUDY    50  39  66 E5        30.11S
MADISON        PTSUNNY   51  38  60 SE6       30.12S
MIDDLETON      CLOUDY    52  38  60 E6        30.12S
WATERTOWN      CLOUDY    53  36  53 E3        30.09F
MONROE         CLOUDY    46  37  71 NE8       30.10F
JANESVILLE     CLOUDY    50  39  66 SE6       30.10F
$$

WIZ051-052-058>065-066-070>072-292300-
SOUTHEAST WISCONSIN

CITY           SKY/WX    TMP DP  RH WIND       PRES   REMARKS
MILWAUKEE      PTSUNNY   44  36  73 NE8       30.14S
WAUKESHA       CLOUDY    46  32  57 NE12G18   30.13S
MILWAUKEE/TIMM NOT AVBL
RACINE         CLOUDY    44  36  73 NE9       30.15S
BURLINGTON     CLOUDY    47  38  71 E6        30.12F
KENOSHA        CLOUDY    46  38  73 E8        30.13S
FOND DU LAC    SUNNY     56  32  40 NE13      30.11S
SHEBOYGAN      SUNNY     51  30  44 E13       30.13S
WEST BEND      CLOUDY    52  30  43 E13G18    30.12R
JUNEAU         CLOUDY    53  35  49 NE8       30.11S
$$

LSZ147-162-292300-
LAKE SUPERIOR

STATION/POSITION TIME  TEMP    WIND        PRES    WAVE
                       AIR SEA DIR/SP/G            HT/PER
                 (UTC) (F)     (DEG/KT/KT) (MB)    (FT/S)
W MID LAKE BUOY  2050   38 37  320/  4/  6 1023.7F   1
DEVILS ISLAND    2100   38      50/  7/  8 1023.4F
SAXON HARBOR     2100   40      20/  5/  6 1021.7F
$$

LMZ867-665-643>646-292300-
LAKE MICHIGAN

STATION/POSITION TIME  TEMP    WIND        PRES    WAVE
                       AIR SEA DIR/SP/G            HT/PER
                 (UTC) (F)     (DEG/KT/KT) (MB)    (FT/S)
CHAMBERS ISLAND  2100   46     340/  4/  6 1020.7F
N MID LAKE BUOY  2050   41 39  320/  4/  4 1020.7F   1
NORTHPORT PIER   2100   47     120/  2/  3 1019.6F
ALGOMA LAKESHORE 2115           70/ 13/ 16   N/A
KEWAUNEE LAKESHO 2100   44      40/  7/  9 1019.0F
SHEBOYGAN LAKESH 2100   42      20/  6/  6 1021.2R
PORT WASHINGTON  2140   44      70/  4/  4 1021.3F
S MID LAKE BUOY  2050   40 40  360/ 10/ 12 1020.0S   1/ 3
KENOSHA   LAKESH 2100   41      30/ 12/ 14 1020.7R
$$

TC  - TEMPERATURE IN CELSIUS
VSB - VISIBILITY IN STATUTE MILES
WCI - WIND CHILL INDEX
HX  - HEAT INDEX





USA.gov is the U.S. government's official web portal to all federal, state and local government web resources and services.